User: anonymous   Login
Location: Arrakis Observatory
(44.1122°N, 95.7153°W)
Time: 14:11:12
(UTC-05:00)
Language:

Iridium 35 - Orbit

View from above orbital plane
View from above orbital plane
View from above satellite
View from above satellite

Ground track
Ground track

The orbit data is extracted from the following two-line orbital elements,

1 24966U 97056B   15245.96234774 +.00000013 +00000-0 -25295-5 0  9996
2 24966 086.3942 231.7059 0002314 087.5980 272.5481 14.34216137938613
Epoch (UTC): 02 September 2015 23:05:46
Eccentricity: 0.0002314
inclination: 86.3942°
perigee height: 776 km
apogee height: 779 km
right ascension of ascending node: 231.7059°
argument of perigee: 87.5980°
revolutions per day: 14.34216137
mean anomaly at epoch: 272.5481°
orbit number at epoch: 93861

The dashed part of the orbit path shows where the satellite is in the earth's shadow,  

DLR